Location: Bennemühlen
(52.5740°N, 9.7135°E)
Time: 16:33:51
(UTC+00:00)

SR - Pass Details

Date: 24 February 2026
Orbit: 572 x 848 km, 66.7° (Epoch: 8 March)

Event Time Altitude Azimuth Distance (km) Brightness Sun altitude
Exits shadow 04:14:27 33° 310° (NW) 1,052 ? -19.6°
Maximum altitude 04:14:57 34° 324° (NW) 1,037 ? -19.5°
Drops below altitude 10° 04:19:12 10° 30° (NNE) 2,075 ? -18.9°
Sets 04:21:47 0° 40° (NE) 3,040 ? -18.5°
